Location: Unspecified
(44.3257°N, 0.0000°E)
Time: 07:11:26
(UTC+00:00)

deb Delta - Visible Passes

Search period start: 04 April 2026 00:00
Search period end: 14 April 2026 00:00
Orbit: 989 x 1126 km, 99.6° (Epoch: 28 March)

Date Brightness Start Highest point End Pass type
(mag) Time Alt. Az. Time Alt. Az. Time Alt. Az.
4 Apr ? 02:13:57 10° E 02:17:07 15° NE 02:20:18 10° NNE visible
4 Apr ? 03:54:50 10° SSE 04:01:01 77° ENE 04:07:11 10° NNW visible
5 Apr ? 02:59:58 10° ESE 03:05:16 31° ENE 03:10:35 10° N visible
5 Apr ? 04:44:00 10° S 04:49:55 47° W 04:55:51 10° NNW visible
5 Apr ? 19:21:45 10° NNW 19:24:58 15° NW 19:28:14 10° W visible
6 Apr ? 02:07:23 10° ENE 02:10:01 13° NE 02:12:39 10° NNE visible
6 Apr ? 03:47:39 10° SSE 03:53:46 69° ENE 03:59:55 10° N visible
7 Apr ? 02:53:01 10° ESE 02:58:06 28° ENE 03:03:12 10° N visible
7 Apr ? 04:36:38 10° S 04:42:38 53° W 04:48:40 10° NNW visible
7 Apr ? 19:14:09 10° NNW 19:17:52 16° NW 19:21:39 10° W visible
8 Apr ? 02:01:00 10° ENE 02:02:55 12° NE 02:04:51 10° NNE visible
8 Apr ? 03:40:30 10° SSE 03:46:33 61° ENE 03:52:38 10° N visible
9 Apr ? 02:46:05 10° ESE 02:50:56 25° ENE 02:55:48 10° N visible
9 Apr ? 04:29:16 10° S 04:35:21 60° WSW 04:41:29 10° NNW visible
9 Apr ? 19:06:37 10° NNW 19:10:46 18° NW 19:14:58 10° W visible
10 Apr ? 01:55:12 10° NE 01:55:49 10° NE 01:56:27 10° NE visible
10 Apr ? 03:33:22 10° SE 03:39:20 54° ENE 03:45:20 10° N visible
11 Apr ? 02:39:11 10° ESE 02:43:47 23° ENE 02:48:24 10° N visible
11 Apr ? 04:21:58 10° S 04:28:05 68° WSW 04:34:16 10° NNW visible
11 Apr ? 18:59:07 10° NNW 19:03:38 21° WNW 19:08:14 10° W visible
12 Apr ? 03:26:15 10° SE 03:32:07 48° ENE 03:38:03 10° N visible
13 Apr ? 02:32:19 10° E 02:36:38 20° ENE 02:40:58 10° NNE visible
13 Apr ? 04:14:40 10° S 04:20:49 77° WSW 04:27:03 10° NNW visible
